Terug naar catalogus

SL-16 DEB

ActiefLEO
NORAD 22297·DEBRIS·🇷🇺 Russia

Gelanceerd Dec 25, 1992 vanaf Baikonur Cosmodrome

Loading…

Volgende Passages (komende 24 uur)

TLE

VersSource: Space-Track

Epoch: Sep 13, 2026, 15:00 UTC

1 22297U 92093M   26256.62554667  .00000096  00000-0  82495-4 0  9994
2 22297  70.9497 346.1252 0097114 120.4022 240.6739 14.06362212725828

Volg SL-16 DEB in realtime met AllMySat

Download on the App Store